Wind_Speed
47 49 51 51 50 50 48 46 44 43 43 43 41 40 40 39 36 36 39 41 42 40 39 39 41 44 46 45 44 42 40 38 38 39 38 33 31 30 29 32 36 38 37 36 36 36 34 34 36 36 37 37 38 39 40 39 39 38 38 36 33 30 27
46 45 48 50 49 49 49 47 44 44 44 44 43 43 44 43 41 41 41 40 41 43 44 46 47 47 46 45 44 42 42 42 42 41 38 36 36 35 34 36 38 37 37 36 36 36 36 35 35 35 36 37 39 40 39 39 39 38 35 34 31 29 28
48 47 48 50 48 48 51 50 48 48 46 46 48 48 49 48 47 46 46 47 48 49 50 50 49 47 45 44 44 45 46 46 44 42 40 39 39 38 37 38 38 37 36 36 36 37 37 36 36 36 36 38 39 40 40 40 40 38 36 35 33 31 30
50 51 52 51 49 50 52 53 52 52 51 51 54 55 54 52 49 46 45 46 48 48 48 49 48 47 46 46 47 47 47 45 43 41 40 39 39 37 37 37 37 37 36 36 37 38 37 36 36 36 36 37 39 41 41 41 39 37 37 37 35 33 32
53 55 55 52 51 52 53 54 53 52 52 52 53 51 48 46 44 42 41 42 43 45 46 46 46 45 45 45 45 44 43 42 40 39 37 37 36 36 35 36 37 37 36 36 37 37 37 36 36 36 36 37 39 42 42 40 37 36 36 36 35 33 32
54 55 57 56 55 55 56 56 55 52 49 47 46 43 40 38 37 36 37 38 40 42 42 43 43 43 42 42 41 41 40 39 38 37 36 36 35 35 36 36 36 36 36 35 36 36 36 36 36 37 37 39 41 42 41 38 36 36 35 35 33 31 28
55 55 56 57 57 58 59 61 59 56 52 47 44 43 42 42 41 40 40 41 44 45 45 46 47 46 44 43 42 41 39 38 38 37 36 36 36 36 37 37 36 37 37 36 36 37 37 36 37 38 39 41 43 41 39 37 36 35 35 33 31 28 27
56 58 57 57 57 56 58 61 62 60 58 53 48 46 45 46 47 47 47 49 51 51 51 51 51 50 48 46 44 42 41 39 38 37 38 38 37 37 37 37 37 37 36 36 36 37 37 37 38 39 41 43 43 41 39 37 36 36 34 32 31 29 30
57 59 59 59 58 55 52 53 58 60 61 59 56 54 53 52 51 51 52 54 54 53 53 53 52 52 50 48 46 43 41 40 39 39 39 39 38 37 37 37 36 36 36 36 36 37 38 38 39 41 42 42 40 37 36 35 35 35 34 33 32 32 33
59 60 60 60 60 58 54 52 56 61 64 64 63 62 61 59 57 56 55 55 55 55 55 55 54 52 49 46 44 41 40 39 39 39 39 39 37 37 38 37 36 36 36 36 37 38 39 39 40 42 42 39 36 35 34 34 34 34 33 33 33 34 35
58 60 60 61 62 63 61 58 59 62 63 64 63 62 61 59 57 55 54 55 55 55 55 55 53 50 46 44 42 40 39 38 38 38 38 38 37 38 38 38 37 37 37 37 38 39 39 40 41 41 39 36 34 35 35 34 33 33 32 33 34 35 36
57 60 60 61 63 65 65 63 62 62 60 59 58 57 56 56 54 52 52 54 55 55 55 54 52 49 46 43 41 40 38 37 37 37 37 37 38 38 39 38 38 37 38 38 38 39 40 40 39 37 35 34 34 34 34 33 32 32 32 33 35 37 39
55 58 59 60 61 63 64 64 62 61 59 56 55 53 53 52 50 50 51 52 54 55 55 54 52 48 45 42 40 39 37 37 37 36 37 37 38 38 39 39 38 37 37 38 38 39 38 37 36 35 34 33 34 33 33 32 32 32 33 35 37 40 43
54 55 55 56 58 60 60 59 58 58 57 57 57 56 54 52 50 49 50 51 53 54 54 54 51 47 43 40 38 37 36 36 36 36 36 38 38 38 39 38 37 36 36 37 37 37 36 36 36 35 35 34 33 33 33 33 33 33 35 38 41 45 47
53 53 54 54 55 57 57 55 54 54 55 55 55 55 53 51 50 49 50 52 53 54 54 52 49 45 41 38 36 35 35 35 36 35 36 37 37 37 37 37 36 35 36 36 36 36 37 37 37 36 35 34 34 34 35 35 36 36 38 42 46 49 48
54 53 55 55 54 53 53 51 50 50 50 49 49 48 48 48 49 50 52 53 54 53 52 49 46 43 40 37 35 34 34 34 35 36 36 36 36 35 35 35 34 34 35 36 36 37 38 38 37 35 35 34 34 35 37 38 39 39 42 46 48 47 45
54 54 54 54 53 51 50 49 48 46 45 45 45 45 45 46 48 50 51 52 52 51 49 46 44 42 39 37 35 35 34 35 35 36 37 36 34 32 32 33 33 32 34 36 36 37 36 35 34 33 33 34 35 37 39 41 41 43 46 49 47 45 43
50 51 51 51 51 50 50 50 48 46 44 43 43 43 43 44 45 46 47 47 47 46 44 42 41 39 38 36 35 35 34 35 35 36 36 34 31 30 30 30 31 30 31 33 33 33 32 31 32 33 34 35 37 38 40 42 44 47 49 48 45 43 43
47 49 48 48 49 49 49 47 45 43 41 40 40 41 42 43 44 44 44 43 42 41 40 39 38 37 36 36 35 35 34 35 35 34 33 31 30 29 28 29 30 29 30 30 31 31 31 31 32 34 36 38 39 40 42 44 48 50 49 45 43 42 44
46 47 46 46 47 47 46 43 39 38 38 39 41 43 44 44 44 43 42 40 39 38 38 38 37 36 36 36 36 35 35 35 34 32 31 30 29 29 29 29 29 29 28 29 31 33 34 35 36 37 39 41 43 44 46 48 50 48 45 44 44 45 47
45 46 45 45 46 46 46 42 37 37 40 42 43 43 43 41 39 38 37 36 36 35 36 36 36 36 36 36 36 35 34 33 31 30 30 29 29 30 31 31 30 30 30 30 31 33 36 38 39 41 43 45 46 48 48 47 46 45 44 46 48 49 50
43 44 44 45 45 46 46 42 38 39 42 44 43 44 43 40 38 37 36 37 38 38 38 38 37 36 35 34 34 33 32 31 30 30 30 31 32 33 34 32 32 33 33 33 34 35 37 39 40 43 45 45 45 46 46 44 44 46 48 49 50 52 54
42 43 44 45 45 45 45 42 41 43 44 45 46 47 46 44 42 42 41 42 42 41 40 39 38 37 35 34 33 32 32 32 32 33 33 35 36 35 35 34 34 35 36 37 38 39 40 41 41 43 44 43 42 43 44 45 46 48 50 52 53 55 56
42 43 45 44 42 43 43 44 45 46 47 49 50 50 49 47 45 44 43 43 42 41 41 40 39 39 38 36 36 35 35 35 35 36 37 37 38 37 36 36 37 38 39 40 41 42 43 43 42 41 42 41 41 43 45 47 48 50 52 54 56 58 59
42 42 42 42 42 42 43 45 48 49 51 53 53 51 49 46 45 45 44 43 43 43 43 42 42 42 41 41 40 39 38 39 39 39 39 40 40 40 39 40 40 41 41 42 43 43 42 41 41 42 42 43 44 45 46 48 51 53 55 57 60 62 63
38 36 35 38 43 44 45 47 49 51 51 50 49 48 46 46 46 45 45 44 44 44 44 45 45 45 45 44 43 42 42 42 42 42 42 42 43 43 43 43 44 44 44 43 42 41 41 41 42 44 45 46 46 47 49 52 55 57 59 62 64 65 67
37 36 37 41 44 47 48 48 48 48 47 45 45 45 45 47 48 46 46 46 45 46 47 48 49 49 48 47 45 45 44 44 45 45 45 47 47 46 46 47 46 46 44 42 41 42 43 44 45 45 46 48 49 51 54 57 59 62 64 66 68 70 73
39 41 44 47 48 49 49 48 47 48 47 46 46 45 45 47 48 48 47 47 48 49 50 51 51 52 50 48 47 47 47 47 48 48 49 49 49 49 48 48 48 47 45 44 45 46 46 46 47 48 49 52 54 57 59 61 64 67 69 71 74 76 78
44 46 48 49 49 49 48 48 48 48 48 48 48 47 47 48 49 49 49 50 50 51 52 52 52 53 51 49 49 49 49 50 51 51 51 51 51 51 52 51 51 50 49 49 49 48 48 49 51 52 55 57 60 61 63 66 69 72 75 78 80 81 83
47 48 49 49 48 47 48 49 49 49 49 50 50 50 50 49 50 50 51 52 53 53 54 53 53 53 52 50 51 52 52 53 53 53 54 55 55 55 56 55 54 52 51 51 51 52 53 54 55 58 60 63 64 66 68 71 74 78 81 83 85 87 88
47 47 48 48 48 47 48 49 50 50 51 52 53 54 53 52 52 52 53 54 54 54 56 56 55 55 55 55 55 56 55 56 57 58 58 58 58 57 56 55 54 53 53 54 55 56 58 58 60 63 66 68 69 71 73 76 80 83 86 88 89 91 93
47 49 50 50 50 50 50 50 52 53 52 53 54 56 57 56 56 57 57 57 57 57 58 59 58 57 58 58 59 59 59 59 60 61 60 58 56 55 54 54 54 55 56 58 59 61 62 64 67 69 71 73 74 76 79 82 85 88 90 91 93 95 96
51 53 54 54 54 54 53 53 54 55 54 55 56 57 58 58 58 58 58 58 59 60 60 61 60 59 59 59 60 60 61 61 60 60 59 57 56 55 56 57 58 60 62 64 65 67 69 71 73 75 76 77 79 82 85 87 89 91 92 94 95 96 97
57 58 58 59 59 59 58 57 56 56 56 57 58 59 59 59 59 60 60 60 61 61 62 62 62 61 61 61 62 62 62 61 61 61 60 60 59 60 61 64 67 68 70 71 73 74 76 77 78 79 81 83 86 89 90 91 93 94 96 97 97 98 98
62 62 62 63 63 63 62 61 61 60 59 59 59 59 60 60 60 61 62 62 63 62 62 62 62 63 63 63 63 63 63 63 64 65 66 66 65 66 68 71 74 76 77 78 78 79 80 81 83 85 87 90 92 93 94 95 96 98 99 99 100 99 99
66 66 67 67 68 68 67 66 65 65 65 63 62 62 61 61 61 61 61 62 62 63 63 64 65 65 66 66 66 67 67 68 68 70 71 72 72 73 75 76 79 80 81 81 82 83 84 86 88 90 93 95 96 96 97 99 100 101 101 102 102 101 101
67 68 69 70 72 72 72 71 69 68 68 67 66 65 65 65 64 64 64 65 65 66 66 67 68 69 69 70 70 71 71 72 72 74 75 76 77 79 80 80 81 82 83 84 86 88 90 91 92 94 96 98 98 99 101 102 103 103 103 103 103 103 102
Wind_Direction
235 240 242 243 244 247 251 254 251 247 243 243 245 250 260 270 271 271 270 264 259 261 264 268 273 281 288 291 292 295 297 300 302 303 304 298 293 294 289 288 296 298 295 292 289 286 284 285 287 288 291 295 299 303 303 303 306 308 309 309 308 305 301
228 235 241 242 244 246 247 248 244 240 241 243 248 256 264 269 268 266 268 267 267 272 275 277 281 285 287 289 291 294 296 298 299 300 301 296 293 292 289 290 295 294 291 289 288 285 284 286 286 288 292 296 300 303 303 305 308 308 308 308 306 303 300
225 229 235 236 239 242 242 241 239 240 244 249 255 261 266 270 270 268 266 267 271 277 279 280 283 284 285 288 291 293 293 294 295 297 298 295 293 291 290 291 291 289 287 285 285 284 284 285 286 289 293 296 298 301 303 305 306 304 303 305 305 302 299
225 226 230 232 235 239 239 238 240 243 249 256 261 265 268 269 271 272 270 269 271 275 277 280 281 282 284 286 287 287 287 290 292 295 296 294 291 290 289 288 287 286 283 281 281 282 284 286 287 290 293 294 297 299 301 303 303 300 300 303 303 302 301
226 227 230 233 235 237 237 238 241 246 253 259 262 263 266 268 269 270 270 269 271 274 276 278 278 277 277 278 279 281 284 288 291 293 293 290 287 286 284 283 283 282 280 279 280 280 282 285 287 289 291 293 296 297 299 300 299 298 299 301 301 301 301
229 231 233 236 236 236 238 240 243 248 252 254 255 254 255 257 260 262 264 266 269 272 274 274 273 272 271 273 277 282 285 288 291 292 290 287 285 282 280 280 280 279 278 277 278 279 281 284 285 287 288 291 295 297 298 298 296 296 299 301 299 297 299
229 231 234 237 237 236 239 242 245 248 248 246 247 247 245 246 249 251 255 260 267 272 274 275 276 276 275 277 281 284 287 289 291 290 288 286 284 280 279 279 278 277 277 276 276 279 282 284 285 286 287 290 294 297 297 296 296 297 299 299 295 291 295
230 232 235 238 239 240 242 245 246 247 246 243 243 244 244 245 246 249 252 258 263 269 273 276 278 280 280 281 283 287 289 290 291 290 289 287 284 280 279 278 277 276 275 275 275 277 281 283 284 284 286 290 293 295 295 294 294 297 298 296 291 288 294
233 235 236 238 241 243 245 247 248 248 247 246 246 247 248 249 250 252 256 259 262 266 272 277 279 282 282 282 284 287 288 290 291 291 289 288 285 281 279 278 276 274 273 273 273 275 279 281 281 282 286 290 293 294 294 292 293 295 295 293 290 289 294
237 238 239 240 242 243 245 247 250 251 251 251 251 253 255 256 257 258 259 260 261 265 272 276 278 281 282 283 285 287 288 290 291 290 289 287 283 281 279 277 275 273 272 271 272 275 277 278 279 282 286 290 292 292 292 292 293 293 292 292 291 290 294
243 242 241 241 242 243 246 249 251 253 255 255 256 258 260 261 261 261 260 259 261 264 269 273 276 281 284 286 288 289 289 289 290 289 287 285 282 280 278 276 275 273 271 270 271 274 276 278 281 284 286 289 290 291 290 289 289 288 289 291 291 290 292
248 246 244 242 242 243 246 250 252 255 256 257 258 260 260 261 261 260 260 261 262 264 267 271 277 282 286 288 289 289 288 288 288 286 284 282 280 278 276 275 274 272 272 271 272 274 277 279 281 283 285 287 289 289 286 284 282 282 286 290 290 290 292
251 250 248 246 244 245 247 250 254 256 257 257 258 259 260 261 261 261 261 262 263 263 266 273 280 285 287 288 289 288 287 287 285 283 282 280 278 276 275 274 273 272 272 272 273 275 277 277 278 280 282 285 286 285 281 279 279 282 288 292 293 293 295
253 250 248 247 246 246 248 252 255 257 258 257 258 259 261 262 262 261 260 260 262 264 268 275 282 285 287 288 287 287 286 284 282 281 279 278 276 275 274 274 273 272 271 272 273 274 274 274 275 278 280 281 281 279 277 276 279 284 290 293 295 296 296
253 250 249 249 248 248 250 252 256 258 259 258 258 259 261 262 262 260 259 261 264 267 271 277 281 283 284 285 285 284 282 280 279 279 278 276 276 276 275 275 274 273 272 272 272 272 272 273 276 278 279 278 276 275 274 275 278 283 288 291 295 295 294
252 251 250 251 251 250 251 253 256 258 260 261 261 262 263 263 262 261 261 263 266 269 273 277 279 279 280 281 281 280 278 277 278 279 278 275 275 275 275 275 275 274 275 274 274 274 275 276 277 277 277 276 275 272 271 274 277 281 286 291 293 293 292
250 251 250 251 250 249 250 253 256 257 259 262 263 264 264 263 262 262 263 265 267 271 274 276 277 278 278 278 278 278 278 278 280 280 278 275 274 275 275 275 276 277 278 277 276 276 277 277 277 276 275 273 272 270 271 274 277 281 286 291 293 292 292
249 249 249 248 248 249 250 253 254 255 257 258 259 260 261 263 264 266 266 268 270 272 274 275 275 275 276 276 277 278 278 279 280 279 277 275 275 276 276 277 278 278 278 278 277 276 275 275 275 275 273 271 270 271 272 274 278 284 289 291 291 292 294
248 247 247 247 247 249 252 252 252 252 253 255 258 261 263 266 269 270 271 271 272 272 272 272 273 274 275 276 276 277 277 278 278 277 275 274 274 276 277 277 277 277 278 277 277 277 276 275 275 275 273 272 272 272 273 276 282 287 290 291 293 297 300
246 246 247 247 248 250 250 249 247 249 253 257 260 263 264 267 269 270 270 270 270 271 272 273 274 275 275 275 275 275 275 276 276 275 274 273 272 274 278 281 282 281 279 277 277 278 279 280 279 277 275 274 275 276 278 281 285 287 291 297 301 304 306
244 246 246 247 248 249 248 244 243 248 253 256 259 262 264 266 267 268 268 269 271 273 275 276 276 275 274 273 272 273 274 275 276 276 274 272 272 278 286 289 288 286 285 283 279 278 279 279 278 278 278 278 280 282 282 284 287 291 298 303 305 306 307
242 245 246 247 248 248 245 240 242 248 252 255 259 263 265 266 266 267 270 272 274 276 276 276 276 274 272 271 270 271 273 275 277 278 276 276 279 286 291 290 288 287 288 288 284 282 281 280 280 280 280 281 283 285 286 290 294 299 302 304 305 305 306
243 245 247 250 251 248 242 240 245 249 252 257 262 264 266 266 266 269 272 274 275 275 275 274 274 273 270 270 271 273 275 278 280 281 280 281 285 289 290 288 286 286 287 287 286 286 285 284 284 284 283 284 286 287 290 294 298 300 301 302 303 304 305
244 245 247 248 249 248 243 242 246 250 255 261 264 264 264 264 265 268 270 272 273 273 274 274 275 274 273 273 275 277 279 281 282 282 282 284 286 289 288 286 285 285 287 287 286 287 287 285 286 287 286 289 291 290 292 295 296 298 300 301 302 304 305
245 245 245 244 243 242 241 241 246 252 259 264 264 264 263 262 264 266 269 271 272 273 275 277 277 277 277 277 277 279 281 281 281 281 282 284 286 288 287 286 285 287 288 287 286 287 287 286 287 288 289 291 293 293 293 294 295 297 299 301 303 304 305
243 241 238 235 233 235 240 245 250 256 260 262 263 263 263 263 265 267 270 270 271 273 276 278 278 277 277 277 278 280 281 281 281 282 283 285 286 287 286 286 287 288 289 288 285 284 285 286 287 288 288 290 291 291 291 293 295 298 300 302 304 304 304
235 231 227 227 232 240 247 251 254 258 259 260 261 262 263 266 268 269 269 269 270 272 274 276 276 276 276 277 278 280 280 279 280 282 283 284 285 286 286 286 287 289 289 286 283 282 282 282 282 283 284 285 286 288 290 293 296 299 301 302 303 303 304
227 227 229 234 241 248 252 253 256 258 259 259 259 259 260 263 266 267 267 267 268 270 271 273 274 275 276 276 277 278 278 279 281 283 283 284 286 287 287 287 288 289 286 282 281 281 280 279 279 280 282 284 286 289 291 293 296 299 301 302 302 303 304
230 233 237 242 247 250 252 254 256 257 258 258 257 257 256 258 261 264 265 266 267 269 270 272 273 274 275 276 277 278 278 280 283 284 284 285 286 287 287 287 288 287 284 282 282 281 279 278 278 280 282 285 287 289 291 294 297 300 301 302 302 303 305
238 241 243 247 251 252 253 255 255 255 255 256 256 255 255 256 259 262 264 266 267 269 270 271 272 273 275 276 276 277 279 281 283 283 284 285 286 287 287 287 287 285 282 280 280 278 278 278 279 281 284 285 287 289 291 294 297 299 300 300 301 302 303
242 244 245 248 251 253 254 255 255 254 254 254 254 255 255 256 258 260 263 265 267 268 269 270 271 273 274 275 276 277 279 280 282 283 285 286 286 286 286 285 283 281 278 277 276 277 278 279 280 282 284 286 287 289 291 293 295 296 298 299 300 301 303
243 245 246 248 250 252 254 255 256 255 254 255 255 256 257 257 258 260 262 263 264 265 267 269 271 273 274 276 277 279 281 282 284 285 286 286 285 284 283 280 277 275 274 275 276 277 278 280 282 283 285 286 287 289 290 292 294 296 297 299 301 303 304
245 246 248 249 250 251 252 253 256 257 257 256 256 257 259 260 260 261 262 262 263 265 267 269 271 272 274 277 279 281 282 283 283 282 282 283 282 280 278 276 275 274 275 276 278 279 280 281 283 284 285 286 288 289 291 293 295 297 299 301 302 303 304
245 245 246 248 249 250 252 253 255 257 257 258 258 259 260 261 262 262 263 263 264 266 268 270 271 273 275 277 279 280 280 280 279 278 277 277 277 277 275 275 276 277 278 279 280 280 281 283 284 285 286 288 290 292 294 295 297 299 300 301 302 303 303
243 242 243 245 247 250 252 254 254 255 256 256 258 259 260 261 262 263 263 264 264 266 268 269 272 274 276 277 277 277 277 276 275 275 275 275 275 275 275 275 277 278 280 281 281 282 283 284 285 287 289 291 293 295 296 297 298 300 301 301 302 303 303
241 242 243 245 247 249 251 253 254 255 255 256 256 257 258 260 261 262 263 264 265 266 268 270 272 274 275 275 275 275 275 275 274 274 275 276 276 276 276 276 278 279 281 282 283 283 284 285 287 289 292 294 296 297 297 298 299 300 301 301 302 303 303
239 241 242 244 246 248 250 252 253 254 255 256 257 257 258 259 260 261 262 263 265 267 268 270 272 272 273 274 274 275 275 275 275 275 275 276 277 277 277 277 278 279 281 282 283 285 286 288 290 292 294 296 296 297 298 299 299 300 300 301 301 301 301
Height
10697 10700 10701 10702 10705 10707 10708 10708 10709 10708 10706 10708 10710 10711 10712 10713 10715 10716 10716 10716 10716 10717 10716 10717 10717 10716 10715 10714 10713 10713 10712 10711 10710 10709 10709 10708 10708 10707 10706 10705 10704 10702 10700 10699 10698 10697 10696 10695 10693 10692 10691 10690 10689 10688 10687 10686 10684 10683 10682 10681 10680 10679 10678
10693 10695 10695 10697 10700 10702 10703 10704 10704 10703 10702 10704 10706 10708 10708 10709 10712 10713 10713 10714 10714 10714 10713 10713 10713 10712 10711 10710 10710 10709 10708 10708 10707 10706 10705 10705 10705 10704 10702 10701 10700 10699 10697 10696 10695 10694 10694 10693 10691 10690 10689 10688 10687 10685 10684 10683 10682 10680 10679 10679 10678 10677 10676
10688 10690 10689 10691 10695 10697 10698 10699 10699 10698 10699 10700 10701 10703 10704 10705 10707 10709 10710 10710 10710 10710 10709 10709 10709 10709 10708 10707 10707 10705 10704 10704 10703 10702 10701 10700 10700 10700 10698 10697 10696 10695 10694 10693 10692 10691 10690 10690 10688 10687 10686 10685 10684 10683 10682 10681 10679 10678 10677 10677 10676 10675 10674
10684 10683 10682 10686 10691 10692 10693 10694 10693 10693 10695 10696 10697 10699 10700 10702 10703 10705 10706 10706 10707 10706 10706 10705 10705 10705 10704 10703 10703 10702 10700 10700 10699 10697 10697 10696 10695 10695 10694 10692 10691 10690 10690 10689 10688 10688 10687 10686 10686 10685 10684 10683 10682 10681 10680 10679 10678 10676 10675 10674 10673 10673 10672
10679 10678 10678 10682 10686 10687 10688 10689 10688 10689 10691 10692 10693 10695 10697 10698 10700 10701 10702 10702 10702 10702 10701 10701 10701 10700 10699 10699 10699 10697 10696 10696 10695 10694 10693 10692 10691 10690 10689 10688 10687 10686 10686 10686 10685 10685 10684 10683 10683 10682 10681 10680 10680 10679 10678 10677 10675 10674 10673 10672 10671 10670 10669
10676 10676 10677 10678 10681 10683 10683 10683 10684 10685 10687 10688 10689 10691 10693 10695 10696 10697 10698 10698 10698 10698 10697 10697 10697 10696 10695 10695 10694 10693 10692 10691 10690 10689 10689 10688 10687 10686 10684 10684 10684 10683 10683 10682 10681 10681 10681 10680 10679 10678 10678 10677 10677 10676 10675 10674 10673 10671 10670 10669 10669 10668 10666
10672 10672 10673 10674 10676 10678 10677 10677 10678 10680 10682 10684 10685 10687 10689 10690 10692 10694 10694 10695 10694 10694 10694 10693 10693 10693 10692 10691 10690 10689 10688 10687 10686 10685 10684 10684 10683 10682 10680 10680 10680 10679 10679 10678 10678 10677 10677 10677 10676 10674 10674 10674 10673 10673 10671 10670 10670 10668 10668 10667 10666 10665 10664
10669 10668 10669 10670 10672 10673 10672 10670 10671 10673 10676 10679 10681 10683 10684 10686 10687 10689 10690 10690 10690 10690 10689 10689 10689 10689 10688 10687 10687 10685 10683 10683 10682 10681 10680 10679 10679 10678 10677 10676 10676 10675 10675 10674 10674 10674 10673 10673 10672 10671 10671 10671 10670 10669 10668 10667 10666 10665 10664 10664 10663 10662 10661
10665 10664 10665 10665 10666 10667 10666 10663 10663 10666 10670 10674 10677 10678 10680 10682 10683 10684 10685 10686 10686 10685 10685 10684 10684 10684 10683 10682 10683 10682 10679 10678 10678 10677 10675 10675 10674 10674 10673 10673 10673 10672 10671 10671 10670 10670 10670 10669 10669 10668 10667 10667 10667 10666 10664 10663 10663 10662 10661 10660 10660 10659 10657
10662 10661 10661 10662 10661 10661 10660 10658 10658 10661 10665 10669 10672 10674 10675 10677 10678 10679 10680 10680 10681 10681 10681 10680 10680 10679 10678 10677 10677 10677 10675 10674 10674 10674 10672 10671 10670 10669 10668 10668 10669 10668 10668 10667 10666 10666 10666 10665 10665 10664 10664 10664 10663 10662 10661 10660 10659 10658 10658 10657 10656 10655 10654
10658 10657 10658 10659 10658 10657 10656 10654 10655 10657 10661 10664 10667 10668 10670 10671 10672 10674 10674 10675 10676 10676 10676 10676 10675 10674 10673 10672 10672 10672 10671 10670 10669 10669 10668 10667 10666 10665 10664 10664 10664 10664 10664 10663 10662 10662 10662 10661 10661 10660 10661 10661 10660 10659 10658 10657 10656 10655 10654 10653 10652 10651 10651
10654 10654 10655 10655 10654 10653 10652 10651 10652 10654 10657 10659 10661 10663 10664 10665 10667 10668 10669 10670 10670 10671 10672 10671 10671 10669 10668 10668 10667 10666 10666 10665 10665 10664 10664 10663 10663 10662 10660 10660 10660 10660 10660 10659 10659 10659 10658 10658 10657 10657 10657 10657 10657 10656 10654 10653 10652 10652 10651 10650 10649 10648 10647
10651 10651 10651 10650 10649 10649 10648 10648 10649 10651 10653 10654 10656 10657 10659 10660 10662 10663 10664 10664 10665 10666 10667 10666 10665 10664 10663 10663 10662 10661 10661 10660 10660 10660 10659 10659 10659 10658 10657 10656 10657 10657 10656 10655 10655 10655 10655 10654 10654 10654 10654 10654 10653 10652 10651 10649 10649 10648 10647 10646 10645 10644 10643
10646 10645 10645 10645 10644 10644 10645 10645 10646 10646 10647 10649 10650 10651 10653 10655 10657 10658 10658 10659 10660 10661 10662 10661 10660 10659 10658 10658 10657 10657 10656 10655 10655 10655 10655 10654 10654 10654 10653 10652 10653 10653 10652 10652 10651 10651 10650 10650 10650 10650 10650 10650 10649 10649 10647 10646 10645 10645 10644 10643 10641 10640 10639
10639 10638 10638 10638 10639 10640 10641 10642 10641 10641 10642 10643 10645 10646 10649 10650 10652 10652 10653 10654 10655 10656 10656 10656 10655 10654 10653 10653 10653 10653 10652 10651 10650 10651 10651 10650 10650 10650 10649 10648 10649 10649 10648 10648 10648 10647 10646 10646 10646 10646 10646 10645 10645 10645 10643 10641 10641 10640 10639 10638 10637 10636 10634
10632 10632 10631 10632 10634 10636 10637 10637 10636 10637 10638 10639 10640 10642 10644 10645 10646 10647 10648 10649 10650 10651 10651 10651 10650 10649 10649 10649 10649 10649 10648 10646 10646 10646 10646 10645 10646 10646 10645 10645 10645 10645 10644 10644 10644 10643 10642 10642 10642 10641 10641 10641 10641 10640 10638 10637 10636 10636 10635 10634 10633 10631 10630
10625 10626 10626 10627 10628 10630 10632 10632 10632 10633 10634 10635 10636 10637 10638 10639 10640 10641 10642 10643 10644 10645 10645 10645 10645 10644 10644 10644 10644 10644 10643 10642 10642 10641 10641 10641 10641 10642 10642 10641 10641 10641 10640 10639 10639 10638 10638 10638 10637 10637 10636 10636 10636 10636 10634 10632 10631 10631 10631 10630 10628 10626 10625
10619 10620 10621 10622 10623 10625 10626 10627 10628 10629 10629 10630 10631 10633 10634 10634 10635 10636 10637 10638 10639 10639 10640 10639 10639 10639 10639 10639 10639 10639 10639 10638 10637 10637 10636 10636 10637 10637 10637 10637 10638 10638 10636 10635 10634 10634 10634 10634 10633 10632 10631 10631 10632 10631 10630 10628 10627 10626 10626 10625 10624 10622 10620
10613 10614 10616 10617 10619 10620 10621 10622 10623 10624 10625 10626 10627 10628 10629 10629 10630 10630 10631 10632 10633 10634 10634 10634 10634 10634 10634 10634 10634 10634 10634 10634 10633 10633 10632 10632 10632 10632 10633 10634 10634 10634 10632 10631 10630 10630 10629 10630 10629 10628 10627 10626 10626 10626 10626 10624 10622 10621 10620 10619 10618 10617 10615
10608 10609 10612 10613 10614 10615 10616 10617 10618 10619 10620 10621 10622 10623 10624 10624 10624 10625 10625 10626 10627 10628 10628 10628 10629 10629 10629 10629 10630 10630 10630 10629 10629 10629 10628 10628 10628 10628 10629 10630 10629 10629 10628 10627 10627 10626 10625 10625 10625 10624 10622 10622 10621 10620 10620 10620 10618 10616 10615 10613 10612 10611 10609
10605 10606 10608 10609 10609 10610 10611 10612 10613 10614 10615 10616 10616 10617 10618 10619 10619 10619 10620 10620 10620 10621 10622 10623 10624 10625 10625 10625 10625 10625 10625 10625 10625 10624 10624 10624 10625 10625 10625 10625 10624 10623 10623 10623 10623 10622 10621 10621 10620 10619 10617 10617 10615 10614 10613 10613 10612 10610 10609 10607 10605 10603 10602
10601 10602 10603 10604 10605 10606 10606 10607 10608 10608 10609 10609 10609 10610 10612 10613 10613 10613 10614 10614 10614 10616 10617 10619 10620 10620 10621 10621 10621 10621 10621 10620 10620 10620 10620 10620 10621 10621 10620 10620 10619 10618 10618 10618 10618 10617 10617 10616 10615 10613 10611 10611 10610 10607 10606 10606 10604 10603 10601 10600 10599 10597 10595
10596 10597 10597 10598 10599 10601 10601 10602 10602 10603 10603 10603 10603 10604 10606 10608 10607 10608 10608 10608 10608 10610 10612 10614 10615 10616 10616 10616 10616 10616 10616 10616 10616 10616 10616 10616 10616 10616 10615 10614 10614 10613 10612 10612 10611 10611 10610 10609 10608 10607 10605 10605 10604 10602 10599 10598 10597 10596 10594 10593 10592 10591 10589
10591 10591 10591 10592 10593 10594 10595 10596 10596 10597 10597 10596 10597 10599 10601 10602 10602 10601 10601 10602 10603 10604 10606 10608 10610 10610 10611 10611 10611 10611 10611 10611 10611 10611 10611 10610 10610 10610 10610 10610 10609 10608 10608 10606 10605 10604 10604 10603 10602 10600 10599 10598 10597 10596 10594 10592 10591 10590 10588 10587 10585 10583 10582
10585 10584 10585 10586 10587 10587 10589 10591 10592 10592 10591 10590 10591 10593 10595 10596 10595 10594 10595 10597 10597 10598 10600 10602 10603 10604 10605 10605 10606 10606 10606 10606 10606 10606 10606 10605 10605 10604 10605 10604 10604 10603 10603 10602 10600 10598 10598 10597 10595 10594 10592 10591 10590 10590 10589 10587 10585 10584 10583 10581 10579 10577 10575
10580 10579 10579 10580 10581 10582 10584 10586 10586 10586 10586 10587 10586 10587 10588 10588 10588 10589 10590 10592 10592 10593 10594 10595 10596 10597 10598 10599 10600 10600 10600 10600 10600 10600 10600 10599 10599 10599 10599 10598 10598 10598 10597 10596 10594 10593 10592 10590 10589 10587 10586 10585 10584 10584 10583 10581 10580 10578 10577 10575 10572 10570 10568
10576 10576 10575 10575 10576 10577 10578 10581 10581 10581 10582 10583 10582 10581 10581 10580 10581 10584 10585 10586 10586 10587 10588 10589 10590 10591 10592 10593 10594 10594 10594 10594 10594 10594 10594 10594 10594 10594 10593 10593 10592 10592 10591 10589 10588 10587 10585 10584 10583 10582 10581 10579 10578 10577 10576 10575 10573 10572 10570 10567 10565 10563 10560
10573 10572 10571 10571 10572 10572 10574 10576 10576 10575 10576 10577 10577 10577 10576 10575 10575 10578 10579 10580 10581 10581 10582 10583 10584 10584 10586 10587 10588 10588 10588 10588 10588 10588 10588 10587 10587 10587 10587 10586 10585 10585 10583 10581 10580 10579 10578 10577 10576 10575 10574 10573 10572 10571 10569 10568 10566 10565 10562 10559 10557 10555 10552
10568 10567 10566 10566 10567 10568 10570 10570 10570 10570 10571 10571 10572 10572 10572 10571 10571 10572 10573 10573 10574 10575 10576 10577 10577 10577 10579 10580 10581 10581 10581 10581 10582 10582 10581 10580 10581 10580 10579 10579 10579 10578 10575 10573 10572 10572 10571 10571 10570 10569 10568 10566 10565 10563 10562 10561 10560 10557 10554 10551 10549 10547 10545
10562 10562 10562 10562 10562 10564 10564 10563 10564 10565 10565 10565 10565 10566 10566 10567 10567 10567 10567 10567 10568 10569 10569 10570 10571 10570 10572 10573 10574 10574 10575 10575 10575 10575 10574 10575 10575 10575 10573 10572 10572 10571 10568 10567 10566 10564 10564 10564 10563 10562 10561 10559 10558 10556 10555 10555 10553 10549 10545 10543 10541 10539 10537
10557 10557 10558 10558 10558 10558 10558 10558 10558 10559 10559 10559 10559 10559 10560 10562 10562 10563 10562 10562 10563 10563 10562 10563 10565 10565 10566 10567 10567 10568 10569 10569 10568 10568 10568 10568 10569 10568 10567 10566 10565 10563 10561 10560 10559 10557 10557 10557 10556 10555 10553 10551 10550 10549 10548 10547 10545 10541 10538 10535 10532 10529 10527
10552 10552 10553 10553 10553 10553 10553 10551 10550 10551 10553 10554 10553 10553 10554 10556 10557 10558 10558 10558 10558 10558 10557 10557 10559 10560 10560 10560 10560 10560 10561 10561 10560 10560 10560 10561 10562 10561 10559 10558 10557 10556 10554 10553 10552 10551 10551 10550 10549 10547 10546 10544 10542 10541 10540 10538 10537 10533 10529 10526 10523 10519 10515
10546 10547 10547 10548 10547 10545 10546 10545 10544 10545 10546 10547 10547 10548 10549 10550 10552 10553 10553 10553 10553 10553 10553 10553 10554 10554 10554 10553 10553 10552 10552 10552 10552 10551 10551 10553 10555 10554 10551 10550 10548 10548 10547 10546 10546 10545 10543 10542 10541 10539 10537 10536 10534 10533 10531 10529 10526 10523 10520 10517 10513 10510 10506
10539 10540 10541 10541 10539 10538 10539 10540 10539 10539 10540 10540 10541 10542 10543 10545 10546 10547 10547 10548 10547 10547 10548 10548 10548 10548 10548 10548 10547 10545 10545 10545 10544 10544 10544 10546 10548 10548 10544 10540 10539 10539 10539 10538 10538 10537 10535 10533 10532 10530 10528 10527 10525 10523 10520 10517 10515 10512 10509 10507 10503 10500 10496
10532 10532 10533 10533 10533 10532 10533 10534 10534 10533 10534 10535 10536 10537 10538 10539 10540 10540 10541 10541 10541 10542 10542 10542 10542 10541 10541 10541 10541 10540 10539 10539 10538 10537 10536 10537 10540 10540 10537 10533 10530 10530 10530 10529 10528 10527 10526 10524 10521 10519 10518 10516 10514 10512 10509 10506 10503 10500 10497 10494 10492 10488 10484
10524 10525 10526 10527 10527 10527 10527 10527 10527 10527 10528 10530 10531 10532 10533 10533 10534 10534 10534 10535 10535 10535 10536 10536 10535 10534 10534 10534 10534 10533 10532 10533 10532 10530 10528 10529 10530 10530 10529 10526 10522 10521 10520 10519 10518 10516 10515 10514 10512 10509 10506 10504 10501 10499 10496 10493 10490 10487 10484 10481 10477 10474 10471
10516 10518 10519 10520 10521 10521 10521 10521 10520 10521 10522 10523 10524 10525 10526 10527 10528 10528 10528 10528 10529 10529 10529 10529 10528 10527 10526 10526 10526 10526 10525 10524 10524 10522 10520 10520 10520 10518 10518 10517 10516 10514 10513 10511 10508 10506 10504 10502 10500 10498 10495 10492 10489 10486 10483 10480 10477 10473 10471 10468 10465 10462 10460